Regional Weather Roundup
Issued by NWS

Home | Current Version | Previous Version | Graphics & Text | Print | Product List | Glossary On
Versions: 1 2 3 4 5 6 7 8 9 10 11 12 13 14 15 16 17 18 19 20 21 22 23 24 25 26 27 28 29 30 31 32 33 34 35 36 37 38 39 40 41 42 43 44 45 46 47 48 49 50
000
ASUS44 KMEG 291010
RWRTN
TENNESSEE HOURLY STATE WEATHER ROUNDUP
NATIONAL WEATHER SERVICE MEMPHIS TN
500 AM CDT FRI APR 29 2016

TNZ002-004-019-021-049-052-054-088>092-291100-
WEST TENNESSEE

CITY           SKY/WX    TMP DP  RH WIND       PRES   REMARKS
MEMPHIS INTL   CLOUDY    67  50  54 CALM      29.96R
NWS MEMPHIS      N/A     58 N/A N/A MISG        N/A
JACKSON        CLOUDY    55  52  89 CALM      29.98R
DYERSBURG      MOCLDY    55  52  88 CALM      29.99R
UNION CITY     CLEAR     57  54  88 NE8       29.98S
LEXINGTON      CLEAR     52  52 100 CALM      29.97S
$$

TNZ008-025-027-028-033-062-065-066-291100-
NORTH MIDDLE TENNESSEE

CITY           SKY/WX    TMP DP  RH WIND       PRES   REMARKS
NASHVILLE      CLOUDY    56  52  86 S3        30.01R
CLARKSVILLE    PTCLDY    55  51  86 N3        30.01R
SMYRNA         MOCLDY    53  53 100 SE3       30.02R
COOKEVILLE     CLEAR     48  48 100 CALM      30.01S
CROSSVILLE     CLOUDY    60  48  64 N3        30.04S
$$

TNZ061-075-076-078-094-096-097-291100-
SOUTH MIDDLE TENNESSEE

CITY           SKY/WX    TMP DP  RH WIND       PRES   REMARKS
FAYETTEVILLE   CLEAR     61  54  77 E6        30.00S
TULLAHOMA      CLEAR     52  52 100 CALM      30.02S
WINCHESTER     CLEAR     50  48  93 CALM      30.02S
MCMINNVILLE    CLEAR     52  52 100 CALM      30.02S
COLUMBIA       CLEAR    N/A N/A N/A CALM      29.99R
SHELBYVILLE    CLEAR     54  54 100 CALM      30.01F
$$

TNZ017-018-042-046-047-291100-
NORTHEAST TENNESSEE

CITY           SKY/WX    TMP DP  RH WIND       PRES   REMARKS
TRI CITIES     PTCLDY    53  51  93 CALM      30.03R
$$

TNZ012-013-036-069-073-074-291100-
CENTRAL EAST TENNESSEE

CITY           SKY/WX    TMP DP  RH WIND       PRES   REMARKS
KNOXVILLE      CLEAR     60  54  80 CALM      30.02R
OAK RIDGE      CLEAR     63  50  62 CALM      30.03R
GATLINBURG     SUNNY     54  52  94 CALM      30.03R
MORRISTOWN     SUNNY     55  54  94 S5        30.02S
$$

TNZ083-085-099-291100-
SOUTHEAST TENNESSEE

CITY           SKY/WX    TMP DP  RH WIND       PRES   REMARKS
CHATTANOOGA    PTCLDY    60  55  83 CALM      30.02R
$$

SKY/WX REPORTED AS FAIR MEANS FEW OR NO CLOUDS BELOW
12 THOUSAND FEET.





USA.gov is the U.S. government's official web portal to all federal, state and local government web resources and services.